Weather History for KBFF - January, 2007

Change the Weather History Date:

Tuesday, January 9, 2007

  Actual Average Record
Temperature  
Mean Temperature 30 °F 27 °F  
Max Temperature 41 °F 40 °F 66 °F (1953)
Min Temperature 18 °F 13 °F -22 °F (1988)
Degree Days  
Heating Degree Days 35 38  
Month to date heating degree days 336 347  
Since 1 July heating degree days 3148 3119  
Cooling Degree Days 0 0  
Month to date cooling degree days 0 0  
Year to date cooling degree days 0 0  
Moisture  
Dew Point 21 °F    
Average Humidity 75    
Maximum Humidity 92    
Minimum Humidity 57    
Precipitation  
Precipitation 0.00 in 0.01 in 0.35 in (1939)
Month to date precipitation 0.00 0.12  
Year to date precipitation 0.00 0.12  
Snow  
Snow 0.00 in 0.20 in 2.60 in (2006)
Month to date snowfall 0.0 1.7  
Since 1 July snowfall 19.3 17.7  
Snow Depth 0.00 in    
Sea Level Pressure  
Sea Level Pressure 30.30 in    
Wind  
Wind Speed 7 mph (SSE)    
Max Wind Speed 16 mph    
Max Gust Speed 20 mph    
Visibility 10 miles    
Events      
T = Trace of Precipitation, MM = Missing Value Source: NWS Daily Summary

Daily Weather History Graph

Daily Weather History Graph

Search for Another Location

Airport or City:

Trip Planner

Search our weather history database for the weather conditions in past years. The results will help you decide how hot, cold, wet, or windy it might be!

Date:

Astronomy

Jan. 09, 2007 Rise Set
Actual Time 7:21 AM MST 4:41 PM MST
Civil Twilight 6:50 AM MST 5:12 PM MST
Nautical Twilight 6:15 AM MST 5:47 PM MST
Astronomical Twilight 5:42 AM MST 6:21 PM MST
Moon 11:09 PM MST (1/9) 10:32 AM MST (1/9)
Length of Visible Light 10h 22m
Length of Day
9h 19m
Waning Gibbous, 66% of the Moon is Illuminated
Jan 9
Waning Gibbous
Jan 11
Last Quarter
Jan 18
New
Jan 25
First Quarter
Feb 1
Full

Hourly Weather History & Observations

Time (MST) Temp. Windchill Dew Point Humidity Pressure Visibility Wind Dir Wind Speed Gust Speed Precip Events Conditions
12:54 AM 27.0 °F 17.3 °F 14.0 °F 58% 30.53 in 10.0 mi WNW 10.4 mph - N/A   Overcast
1:54 AM 27.0 °F 23.0 °F 15.1 °F 61% 30.55 in 10.0 mi WNW 3.5 mph - N/A   Overcast
2:54 AM 27.0 °F 18.7 °F 14.0 °F 58% 30.52 in 10.0 mi WNW 8.1 mph - N/A   Overcast
3:54 AM 27.0 °F 20.5 °F 14.0 °F 58% 30.52 in 10.0 mi West 5.8 mph - N/A   Overcast
4:54 AM 21.2 °F 14.9 °F 15.8 °F 80% 30.44 in 10.0 mi WSW 4.6 mph - N/A   Clear
5:54 AM 21.9 °F - 15.1 °F 75% 30.52 in 10.0 mi Calm Calm - N/A   Clear
6:54 AM 19.9 °F - 12.9 °F 74% 30.51 in 10.0 mi Calm Calm - N/A   Clear
7:54 AM 19.9 °F 12.1 °F 14.0 °F 78% 30.49 in 10.0 mi East 5.8 mph - N/A   Clear
8:54 AM 26.1 °F 16.8 °F 18.0 °F 71% 30.47 in 10.0 mi SSE 9.2 mph - N/A   Clear
9:54 AM 32.0 °F 24.8 °F 21.9 °F 66% 30.43 in 10.0 mi South 8.1 mph - N/A   Clear
10:54 AM 36.0 °F 29.6 °F 24.1 °F 62% 30.38 in 10.0 mi South 8.1 mph - N/A   Clear
11:54 AM 37.9 °F 30.5 °F 26.1 °F 62% 30.32 in 10.0 mi SSW 11.5 mph - N/A   Clear
12:54 PM 39.9 °F 32.1 °F 27.0 °F 60% 30.25 in 10.0 mi SSW 13.8 mph - N/A   Clear
1:54 PM 41.0 °F 34.3 °F 28.0 °F 60% 30.21 in 10.0 mi SSW 11.5 mph - N/A   Clear
2:54 PM 39.9 °F 33.9 °F 27.0 °F 60% 30.18 in 10.0 mi South 9.2 mph - N/A   Clear
3:54 PM 39.0 °F 32.3 °F 28.0 °F 65% 30.16 in 10.0 mi South 10.4 mph - N/A   Clear
4:54 PM 33.1 °F 26.9 °F 27.0 °F 78% 30.17 in 10.0 mi SE 6.9 mph - N/A   Clear
5:54 PM 28.9 °F 22.8 °F 26.1 °F 89% 30.16 in 10.0 mi East 5.8 mph - N/A   Clear
6:54 PM 28.0 °F 20.8 °F 24.1 °F 85% 30.15 in 10.0 mi East 6.9 mph - N/A   Clear
7:54 PM 27.0 °F 21.6 °F 24.1 °F 89% 30.13 in 10.0 mi East 4.6 mph - N/A   Clear
8:54 PM 27.0 °F 21.6 °F 23.0 °F 85% 30.08 in 10.0 mi East 4.6 mph - N/A   Clear
9:54 PM 25.0 °F 19.3 °F 21.9 °F 88% 30.06 in 10.0 mi East 4.6 mph - N/A   Clear
10:54 PM 24.1 °F 19.7 °F 21.0 °F 88% 30.02 in 10.0 mi ESE 3.5 mph - N/A   Clear
11:54 PM 24.1 °F 19.7 °F 19.9 °F 84% 29.98 in 10.0 mi SE 3.5 mph - N/A   Clear